Time,TemperatureF,DewpointF,PressureIn,WindDirection,WindDirectionDegrees,WindSpeedMPH,WindSpeedGustMPH,Humidity,HourlyPrecipIn,Conditions,Clouds,dailyrainin,SoftwareType,DateUTC
2013-01-19 00:10:00,25.8,12.0,30.42,WSW,240,2.0,6.0,57,0.00,,,0.00,weatherlink.com 1.10,2013-01-19 05:10:00,
2013-01-19 00:25:00,25.8,12.0,30.41,SSE,152,1.0,6.0,57,0.00,,,0.00,weatherlink.com 1.10,2013-01-19 05:25:00,
2013-01-19 00:43:00,25.8,12.0,30.42,West,267,2.0,5.0,56,0.00,,,0.00,weatherlink.com 1.10,2013-01-19 05:43:00,
2013-01-19 00:55:00,25.9,13.0,30.41,SW,236,3.0,5.0,58,0.00,,,0.00,weatherlink.com 1.10,2013-01-19 05:55:00,
2013-01-19 01:10:00,26.3,12.0,30.41,SSW,193,2.0,11.0,56,0.00,,,0.00,weatherlink.com 1.10,2013-01-19 06:10:00,
2013-01-19 01:25:00,26.3,12.0,30.41,West,266,0.0,10.0,56,0.00,,,0.00,weatherlink.com 1.10,2013-01-19 06:25:00,
2013-01-19 01:40:00,26.1,13.0,30.41,SW,232,2.0,7.0,57,0.00,,,0.00,weatherlink.com 1.10,2013-01-19 06:40:00,
2013-01-19 01:55:00,26.0,13.0,30.41,SSW,212,4.0,7.0,58,0.00,,,0.00,weatherlink.com 1.10,2013-01-19 06:55:00,
2013-01-19 02:10:00,25.9,13.0,30.40,WSW,242,3.0,8.0,59,0.00,,,0.00,weatherlink.com 1.10,2013-01-19 07:10:00,
2013-01-19 02:25:00,26.1,13.0,30.40,WSW,258,2.0,10.0,57,0.00,,,0.00,weatherlink.com 1.10,2013-01-19 07:25:00,
2013-01-19 02:40:00,26.2,13.0,30.39,WSW,246,5.0,8.0,58,0.00,,,0.00,weatherlink.com 1.10,2013-01-19 07:40:00,
2013-01-19 02:55:00,26.1,14.0,30.39,WNW,285,1.0,7.0,60,0.00,,,0.00,weatherlink.com 1.10,2013-01-19 07:55:00,
2013-01-19 03:10:00,26.2,14.0,30.38,SW,229,1.0,6.0,60,0.00,,,0.00,weatherlink.com 1.10,2013-01-19 08:10:00,
2013-01-19 03:25:00,26.2,14.0,30.37,WSW,242,1.0,7.0,61,0.00,,,0.00,weatherlink.com 1.10,2013-01-19 08:25:00,
2013-01-19 03:40:00,26.4,14.0,30.37,WSW,246,5.0,8.0,61,0.00,,,0.00,weatherlink.com 1.10,2013-01-19 08:40:00,
2013-01-19 03:55:00,26.1,15.0,30.36,West,263,0.0,6.0,63,0.00,,,0.00,weatherlink.com 1.10,2013-01-19 08:55:00,
2013-01-19 04:10:00,26.4,15.0,30.36,West,276,0.0,7.0,63,0.00,,,0.00,weatherlink.com 1.10,2013-01-19 09:10:00,
2013-01-19 04:25:00,26.4,15.0,30.35,SW,219,4.0,9.0,63,0.00,,,0.00,weatherlink.com 1.10,2013-01-19 09:25:00,
2013-01-19 04:40:00,26.6,16.0,30.34,WSW,255,2.0,10.0,65,0.00,,,0.00,weatherlink.com 1.10,2013-01-19 09:40:00,
2013-01-19 04:55:00,26.7,16.0,30.34,WSW,238,1.0,7.0,65,0.00,,,0.00,weatherlink.com 1.10,2013-01-19 09:55:00,
2013-01-19 05:10:00,26.9,17.0,30.34,WSW,255,1.0,6.0,66,0.00,,,0.00,weatherlink.com 1.10,2013-01-19 10:10:00,
2013-01-19 05:25:00,27.1,17.0,30.33,SW,234,3.0,6.0,66,0.00,,,0.00,weatherlink.com 1.10,2013-01-19 10:25:00,
2013-01-19 05:40:00,27.5,18.0,30.32,SW,221,4.0,9.0,67,0.00,,,0.00,weatherlink.com 1.10,2013-01-19 10:40:00,
2013-01-19 05:55:00,27.8,18.0,30.32,SW,222,2.0,8.0,68,0.00,,,0.00,weatherlink.com 1.10,2013-01-19 10:55:00,
2013-01-19 06:10:00,28.0,19.0,30.31,WSW,248,2.0,11.0,69,0.00,,,0.00,weatherlink.com 1.10,2013-01-19 11:10:00,
2013-01-19 07:56:00,29.8,22.0,30.30,WSW,245,9.0,12.0,73,0.00,,,0.00,weatherlink.com 1.10,2013-01-19 12:56:00,
2013-01-19 08:11:00,30.1,22.0,30.30,WSW,239,9.0,14.0,73,0.00,,,0.00,weatherlink.com 1.10,2013-01-19 13:11:00,
2013-01-19 08:26:00,30.6,23.0,30.30,South,186,5.0,11.0,73,0.00,,,0.00,weatherlink.com 1.10,2013-01-19 13:26:00,
2013-01-19 08:41:00,31.2,23.0,30.30,WSW,239,8.0,19.0,73,0.00,,,0.00,weatherlink.com 1.10,2013-01-19 13:41:00,
2013-01-19 09:11:00,32.9,24.0,30.29,WNW,284,2.0,11.0,71,0.00,,,0.00,weatherlink.com 1.10,2013-01-19 14:11:00,
2013-01-19 09:26:00,33.9,25.0,30.29,NNW,345,4.0,14.0,70,0.00,,,0.00,weatherlink.com 1.10,2013-01-19 14:26:00,
2013-01-19 09:41:00,35.0,25.0,30.29,SW,232,7.0,10.0,68,0.00,,,0.00,weatherlink.com 1.10,2013-01-19 14:41:00,
2013-01-19 09:56:00,35.1,25.0,30.28,WSW,252,4.0,13.0,68,0.00,,,0.00,weatherlink.com 1.10,2013-01-19 14:56:00,
2013-01-19 10:26:00,36.5,26.0,30.26,NW,304,1.0,12.0,67,0.00,,,0.00,weatherlink.com 1.10,2013-01-19 15:26:00,
2013-01-19 10:41:00,37.5,27.0,30.25,WNW,288,0.0,11.0,65,0.00,,,0.00,weatherlink.com 1.10,2013-01-19 15:41:00,
2013-01-19 10:56:00,38.3,27.0,30.25,WSW,252,5.0,13.0,63,0.00,,,0.00,weatherlink.com 1.10,2013-01-19 15:56:00,
2013-01-19 11:11:00,39.2,27.0,30.23,SW,235,7.0,15.0,61,0.00,,,0.00,weatherlink.com 1.10,2013-01-19 16:11:00,
2013-01-19 11:27:00,39.9,27.0,30.22,ENE,77,6.0,12.0,60,0.00,,,0.00,weatherlink.com 1.10,2013-01-19 16:27:00,
2013-01-19 11:42:00,40.7,27.0,30.20,West,275,3.0,10.0,59,0.00,,,0.00,weatherlink.com 1.10,2013-01-19 16:42:00,
2013-01-19 11:57:00,41.4,27.0,30.19,SSW,208,5.0,10.0,58,0.01,,,0.01,weatherlink.com 1.10,2013-01-19 16:57:00,
2013-01-19 12:12:00,42.3,27.0,30.18,West,266,3.0,9.0,56,0.01,,,0.01,weatherlink.com 1.10,2013-01-19 17:12:00,
2013-01-19 12:42:00,43.7,27.0,30.16,West,259,6.0,13.0,53,0.01,,,0.01,weatherlink.com 1.10,2013-01-19 17:42:00,
2013-01-19 12:57:00,44.2,27.0,30.15,WSW,239,4.0,12.0,51,0.00,,,0.01,weatherlink.com 1.10,2013-01-19 17:57:00,
2013-01-19 13:12:00,44.4,28.0,30.14,NNE,16,1.0,8.0,52,0.00,,,0.01,weatherlink.com 1.10,2013-01-19 18:12:00,
2013-01-19 13:27:00,44.5,27.0,30.14,WSW,242,3.0,9.0,50,0.00,,,0.01,weatherlink.com 1.10,2013-01-19 18:27:00,
2013-01-19 13:42:00,44.7,27.0,30.13,WNW,293,1.0,10.0,51,0.00,,,0.01,weatherlink.com 1.10,2013-01-19 18:42:00,
2013-01-19 14:12:00,45.0,28.0,30.12,SW,221,2.0,11.0,51,0.00,,,0.01,weatherlink.com 1.10,2013-01-19 19:12:00,
2013-01-19 14:27:00,45.1,27.0,30.11,West,269,5.0,13.0,50,0.00,,,0.01,weatherlink.com 1.10,2013-01-19 19:27:00,
2013-01-19 14:42:00,45.2,28.0,30.11,SW,236,7.0,10.0,51,0.00,,,0.01,weatherlink.com 1.10,2013-01-19 19:42:00,
2013-01-19 14:57:00,45.4,29.0,30.10,SW,218,1.0,6.0,52,0.00,,,0.01,weatherlink.com 1.10,2013-01-19 19:57:00,
2013-01-19 15:12:00,45.5,28.0,30.10,WNW,288,3.0,7.0,51,0.00,,,0.01,weatherlink.com 1.10,2013-01-19 20:12:00,
2013-01-19 15:27:00,45.8,28.0,30.10,West,260,0.0,6.0,51,0.00,,,0.01,weatherlink.com 1.10,2013-01-19 20:27:00,
2013-01-19 15:42:00,45.9,28.0,30.09,West,260,2.0,7.0,50,0.00,,,0.01,weatherlink.com 1.10,2013-01-19 20:42:00,
2013-01-19 15:57:00,46.2,27.0,30.09,NW,311,3.0,8.0,48,0.00,,,0.01,weatherlink.com 1.10,2013-01-19 20:57:00,
2013-01-19 16:12:00,46.1,28.0,30.09,WSW,252,4.0,8.0,49,0.00,,,0.01,weatherlink.com 1.10,2013-01-19 21:12:00,
2013-01-19 16:27:00,46.1,28.0,30.09,NW,316,0.0,7.0,49,0.00,,,0.01,weatherlink.com 1.10,2013-01-19 21:27:00,
2013-01-19 16:42:00,45.8,27.0,30.07,WSW,252,0.0,3.0,49,0.00,,,0.01,weatherlink.com 1.10,2013-01-19 21:42:00,
2013-01-19 16:57:00,45.5,28.0,30.07,SW,235,0.0,4.0,51,0.00,,,0.01,weatherlink.com 1.10,2013-01-19 21:57:00,
2013-01-19 17:12:00,45.5,28.0,30.07,West,271,0.0,4.0,50,0.00,,,0.01,weatherlink.com 1.10,2013-01-19 22:12:00,
2013-01-19 17:27:00,45.8,27.0,30.06,WNW,283,2.0,5.0,49,0.00,,,0.01,weatherlink.com 1.10,2013-01-19 22:27:00,
2013-01-19 17:42:00,46.4,27.0,30.06,SW,235,3.0,7.0,48,0.00,,,0.01,weatherlink.com 1.10,2013-01-19 22:42:00,
2013-01-19 18:13:00,46.7,27.0,30.06,South,180,5.0,11.0,47,0.00,,,0.01,weatherlink.com 1.10,2013-01-19 23:13:00,
2013-01-19 18:28:00,46.5,28.0,30.05,WSW,256,5.0,12.0,48,0.00,,,0.01,weatherlink.com 1.10,2013-01-19 23:28:00,
2013-01-19 19:28:00,45.6,29.0,30.05,WSW,257,7.0,11.0,52,0.00,,,0.01,weatherlink.com 1.10,2013-01-20 00:28:00,
2013-01-19 19:58:00,45.5,29.0,30.04,WSW,255,9.0,9.0,53,0.00,,,0.01,weatherlink.com 1.10,2013-01-20 00:58:00,
2013-01-19 20:13:00,45.2,29.0,30.04,WNW,287,4.0,10.0,54,0.00,,,0.01,weatherlink.com 1.10,2013-01-20 01:13:00,
2013-01-19 20:28:00,44.7,29.0,30.02,WSW,257,2.0,10.0,55,0.00,,,0.01,weatherlink.com 1.10,2013-01-20 01:28:00,
2013-01-19 21:13:00,43.5,29.0,30.01,West,280,2.0,11.0,57,0.00,,,0.01,weatherlink.com 1.10,2013-01-20 02:13:00,
2013-01-19 21:28:00,43.3,29.0,30.00,WSW,240,3.0,9.0,58,0.00,,,0.01,weatherlink.com 1.10,2013-01-20 02:28:00,
2013-01-19 21:43:00,42.9,29.0,30.00,West,262,3.0,11.0,59,0.00,,,0.01,weatherlink.com 1.10,2013-01-20 02:43:00,
2013-01-19 21:58:00,42.8,29.0,29.99,SSW,201,2.0,7.0,59,0.00,,,0.01,weatherlink.com 1.10,2013-01-20 02:58:00,
2013-01-19 22:43:00,42.6,29.0,29.97,West,273,1.0,9.0,60,0.00,,,0.01,weatherlink.com 1.10,2013-01-20 03:43:00,
2013-01-19 22:58:00,42.6,29.0,29.96,SSW,205,2.0,11.0,60,0.00,,,0.01,weatherlink.com 1.10,2013-01-20 03:58:00,
2013-01-19 23:44:00,42.4,30.0,29.94,SE,134,1.0,11.0,61,0.00,,,0.01,weatherlink.com 1.10,2013-01-20 04:44:00,
2013-01-19 23:58:00,42.1,30.0,29.94,SW,228,5.0,11.0,62,0.00,,,0.01,weatherlink.com 1.10,2013-01-20 04:58:00,